Home   Weather   Wichita   Past weeks

Flag for USA Past Weather in Wichita, Kansas, USA — Yesterday and Last 2 Weeks

Now
76 °F

Scattered clouds.


Feels Like: 78 °F
Forecast: 44 / 75 °F
Wind: 8 mph from South

Location: Wichita Mid-Continent Airport

Current Time: Feb 22, 2017 at 4:26:59 pm

Latest Report: Feb 22, 2017 at 3:53 pm


Visibility: 10 mi

Pressure: 29.65 "Hg

Humidity: 35%

Dew Point: 46 °F

Location of WichitaLocation

Past Weather in Wichita — Graph

°F

Wichita Temperature Yesterday

Maximum temperature yesterday: 71 °F (at 3:53 pm)
Minimum temperature yesterday: 39 °F (at 5:53 am)
Average temperature yesterday: 53 °F

High & Low Weather Summary for the Past Weeks

 TemperatureHumidityPressure
High75 °F (Feb 22, 2:53 pm)100% (Feb 12, 10:53 pm)30.51 "Hg (Feb 12, 10:53 pm)
Low17 °F (Feb 9, 6:53 am)19% (Feb 16, 3:53 pm)29.62 "Hg (Feb 11, 2:53 am)
Average48 °F63%29.96 "Hg
* Reported Feb 7 2:53 pm — Feb 22 2:53 pm, Wichita, Weather by CustomWeather, © 2017

Note: Actual official high and low records may vary slightly from our data, if they occured in-between our weather recording intervals... More about our weather records

Advertising

Wichita Weather History for the Previous 24 Hours

Scroll right to see more
 ConditionsComfort  
Time TempWeatherWind HumidityBarometerVisibility
2:53 pm
Wed, Feb 22
75 °FScattered clouds.9 mph34%29.66 "Hg10 mi
1:53 pm73 °FScattered clouds.10 mph36%29.69 "Hg10 mi
12:53 pm71 °FScattered clouds.12 mph38%29.72 "Hg10 mi
11:53 am68 °FScattered clouds.12 mph40%29.75 "Hg10 mi
10:53 am65 °FScattered clouds.14 mph44%29.75 "Hg10 mi
9:53 am60 °FScattered clouds.15 mph49%29.77 "Hg10 mi
8:53 am51 °FScattered clouds.8 mph69%29.80 "Hg10 mi
7:53 am45 °FScattered clouds.10 mph76%29.82 "Hg10 mi
6:53 am40 °FPassing clouds.6 mph83%29.81 "Hg10 mi
5:53 am40 °FClear.6 mph83%29.82 "Hg10 mi
4:53 am40 °FClear.8 mph83%29.82 "Hg10 mi
3:53 am41 °FClear.9 mph82%29.82 "Hg10 mi
2:53 am40 °FClear.8 mph83%29.84 "Hg10 mi
1:53 am44 °FClear.7 mph76%29.85 "Hg10 mi
12:53 am43 °FClear.7 mph79%29.87 "Hg10 mi
11:53 pm
Tue, Feb 21
44 °FClear.8 mph76%29.89 "Hg10 mi
10:53 pm48 °FClear.5 mph71%29.91 "Hg10 mi
9:53 pm48 °FClear.5 mph68%29.92 "Hg10 mi
8:53 pm50 °FClear.8 mph66%29.92 "Hg10 mi
7:53 pm52 °FClear.7 mph61%29.92 "Hg10 mi
6:53 pm56 °FClear.7 mph51%29.92 "Hg10 mi
5:53 pm63 °FPassing clouds.6 mph40%29.91 "Hg10 mi
4:53 pm69 °FPassing clouds.5 mph29%29.91 "Hg10 mi
Weather by CustomWeather, © 2017

See weather overviewHow to use our weather pages